Starlink 31341

operational
NORAD ID: 59155 Int'l Des: 2024-044 Owner: SPXS Country: US Constellation: starlink
LEOCIRCULAR

Starlink 31341について

説明を読み込み中...

リアルタイム位置

3D地球を読み込み中...

次回通過

高度履歴

Altitude vs Time

uPlot chart will show altitude changes over time

軌道要素

1 59155U 24044D 25258.07148588 -.00001374 00000-0 -42676-4 0 9998
2 59155 43.0014 21.7095 0001450 261.6777 98.3910 15.25915273 86676
Epoch: Sep 15, 2025 • Age: 11 hours

現在のステータス

高度 488.4 km
速度 7.62 km/s
衛星直下点 23.75°N, 140.71°W
打ち上げ日 Mar 4, 2024
運用期間 1.5 years
タイプ internet

技術仕様

分類 Payload
質量 730.00 kg
乾燥質量 700.00 kg
総質量 730.00 kg
長さ 0.30 m
直径 4.10 m
スパン 29.00 m
形状 Box + pan
製造者 SPXS
バスタイプ Starlink V2M
フェーズステータス In Orbit
所有者/国 SPXS/US

大規模コンステレーション

Loading constellations...